This is the latest recevied weather packets stored in our database for station/object IU1OPQ-3. If no packets are shown the sender has not sent any weather packets the latest 10 day(s).
| Time | Temp. | Humidity | Pressure | Rain* | Wind** | Luminosity | Snow |
|---|---|---|---|---|---|---|---|
| 1777464900 | 17.22° C | 67% | 1016.9 hPa | 0 mm | - | - | - |
| 1777464001 | 17.22° C | 70% | 1017.1 hPa | 0 mm | - | - | - |
| 1777463101 | 17.78° C | 71% | 1017 hPa | 0 mm | - | - | - |
| 1777462201 | 16.67° C | 70% | 1017.1 hPa | 0 mm | - | - | - |
| 1777461301 | 16.11° C | 76% | 1017.3 hPa | 0 mm | - | - | - |
| 1777460401 | 16.11° C | 75% | 1017.3 hPa | 0 mm | - | - | - |
| 1777459501 | 16.67° C | 77% | 1017.4 hPa | 0 mm | - | - | - |
| 1777458601 | 15° C | 78% | 1017.6 hPa | 0 mm | - | - | - |
| 1777457701 | 15° C | 78% | 1017.6 hPa | 0 mm | - | - | - |
| 1777456801 | 15° C | 79% | 1017.6 hPa | 0 mm | - | - | - |
| 1777455901 | 14.44° C | 81% | 1017.6 hPa | 0 mm | - | - | - |
| 1777455001 | 14.44° C | 82% | 1017.4 hPa | 0 mm | - | - | - |
| 1777454101 | 14.44° C | 84% | 1017.2 hPa | 0 mm | - | - | - |
| 1777453201 | 14.44° C | 84% | 1017.4 hPa | 0 mm | - | - | - |
| 1777452301 | 14.44° C | 83% | 1017.2 hPa | 0 mm | - | - | - |
| 1777451401 | 13.89° C | 85% | 1017.1 hPa | 0 mm | - | - | - |
| 1777450501 | 13.33° C | 88% | 1017.4 hPa | 0 mm | - | - | - |
| 1777449603 | 12.78° C | 90% | 1017.3 hPa | 0 mm | - | - | - |
| 1777448701 | 12.78° C | 92% | 1017 hPa | 0 mm | - | - | - |
| 1777447801 | 12.78° C | 92% | 1017 hPa | 0 mm | - | - | - |
| 1777446901 | 12.78° C | 93% | 1016.9 hPa | 0 mm | - | - | - |
| 1777446001 | 12.78° C | 93% | 1016.8 hPa | 0 mm | - | - | - |
| 1777445101 | 12.78° C | 92% | 1016.9 hPa | 0 mm | - | - | - |
| 1777444201 | 12.78° C | 91% | 1016.5 hPa | 0 mm | - | - | - |
| 1777443301 | 12.78° C | 92% | 1016.7 hPa | 0 mm | - | - | - |
* Rain latest hour (hover to see other rain measurements)
** Current wind speed in m/s (hover to see current wind gust speed)